QPF
0.00 0.00 0.00 0.00 0.00 0.00 0.00 0.00 0.00 0.00 0.00 0.00 0.00 0.00 0.00 0.00 0.00 0.00 0.00 0.00 0.00 0.00 0.00 0.00 0.00 0.00 0.00 0.00 0.00 0.00 0.00 0.00 0.00 0.00 0.00 0.00 0.00 0.00 0.00 0.00 0.00 0.00 0.00
0.00 0.00 0.00 0.00 0.00 0.00 0.00 0.00 0.00 0.00 0.00 0.00 0.00 0.00 0.00 0.00 0.00 0.00 0.00 0.00 0.00 0.00 0.00 0.00 0.00 0.00 0.00 0.00 0.00 0.00 0.00 0.00 0.00 0.00 0.00 0.00 0.00 0.00 0.00 0.00 0.00 0.00 0.00
0.00 0.00 0.00 0.00 0.00 0.00 0.00 0.00 0.00 0.00 0.00 0.00 0.00 0.00 0.00 0.00 0.00 0.00 0.00 0.00 0.00 0.00 0.00 0.00 0.00 0.00 0.00 0.00 0.00 0.00 0.00 0.00 0.00 0.00 0.00 0.00 0.00 0.00 0.00 0.00 0.00 0.00 0.00
0.00 0.00 0.00 0.00 0.00 0.00 0.00 0.00 0.00 0.00 0.00 0.00 0.00 0.00 0.00 0.00 0.00 0.00 0.00 0.00 0.00 0.00 0.00 0.00 0.00 0.00 0.00 0.00 0.00 0.00 0.00 0.00 0.00 0.00 0.00 0.00 0.00 0.00 0.00 0.00 0.00 0.00 0.00
0.00 0.00 0.00 0.00 0.00 0.00 0.00 0.00 0.00 0.00 0.00 0.00 0.00 0.00 0.00 0.00 0.00 0.00 0.00 0.00 0.00 0.00 0.00 0.00 0.00 0.00 0.00 0.00 0.00 0.00 0.00 0.00 0.00 0.00 0.00 0.00 0.00 0.00 0.00 0.00 0.00 0.00 0.00
0.00 0.00 0.00 0.00 0.00 0.00 0.00 0.00 0.00 0.00 0.00 0.00 0.00 0.00 0.00 0.00 0.00 0.00 0.00 0.00 0.00 0.00 0.00 0.00 0.00 0.00 0.00 0.00 0.00 0.00 0.00 0.00 0.00 0.00 0.00 0.00 0.00 0.00 0.00 0.00 0.00 0.00 0.00
0.00 0.00 0.00 0.00 0.00 0.00 0.00 0.00 0.00 0.00 0.00 0.00 0.00 0.00 0.00 0.00 0.00 0.00 0.00 0.00 0.00 0.00 0.00 0.00 0.00 0.00 0.00 0.00 0.00 0.00 0.00 0.00 0.00 0.00 0.00 0.00 0.00 0.00 0.00 0.00 0.01 0.01 0.01
0.01 0.00 0.00 0.00 0.00 0.00 0.00 0.00 0.00 0.00 0.00 0.00 0.00 0.00 0.00 0.00 0.00 0.00 0.00 0.00 0.00 0.00 0.00 0.00 0.00 0.00 0.00 0.00 0.00 0.00 0.00 0.00 0.00 0.00 0.00 0.00 0.00 0.00 0.00 0.01 0.01 0.01 0.01
0.03 0.02 0.01 0.01 0.01 0.00 0.00 0.00 0.00 0.00 0.00 0.00 0.00 0.00 0.00 0.00 0.00 0.00 0.00 0.00 0.00 0.00 0.00 0.00 0.00 0.00 0.00 0.00 0.00 0.00 0.00 0.00 0.00 0.00 0.00 0.00 0.00 0.00 0.01 0.01 0.02 0.02 0.02
0.06 0.04 0.03 0.02 0.02 0.02 0.01 0.01 0.00 0.00 0.00 0.00 0.00 0.00 0.00 0.00 0.00 0.00 0.00 0.00 0.00 0.00 0.00 0.00 0.00 0.00 0.00 0.00 0.00 0.00 0.00 0.00 0.00 0.00 0.00 0.00 0.00 0.01 0.02 0.02 0.03 0.03 0.04
0.08 0.07 0.05 0.03 0.03 0.03 0.02 0.01 0.01 0.00 0.00 0.00 0.00 0.00 0.00 0.00 0.00 0.00 0.00 0.00 0.00 0.00 0.00 0.00 0.00 0.00 0.00 0.00 0.00 0.00 0.00 0.00 0.00 0.00 0.00 0.00 0.01 0.01 0.02 0.03 0.03 0.03 0.03
0.07 0.07 0.06 0.06 0.04 0.03 0.02 0.01 0.01 0.00 0.00 0.00 0.00 0.00 0.00 0.00 0.00 0.00 0.00 0.00 0.00 0.00 0.00 0.00 0.00 0.00 0.00 0.00 0.00 0.00 0.00 0.00 0.00 0.00 0.00 0.00 0.01 0.02 0.02 0.03 0.03 0.03 0.03
0.06 0.06 0.06 0.06 0.06 0.04 0.02 0.01 0.01 0.00 0.00 0.00 0.00 0.00 0.00 0.00 0.00 0.00 0.00 0.00 0.00 0.00 0.00 0.00 0.00 0.00 0.00 0.00 0.00 0.00 0.00 0.00 0.00 0.00 0.00 0.01 0.01 0.01 0.02 0.02 0.02 0.03 0.03
0.08 0.09 0.09 0.09 0.07 0.05 0.03 0.02 0.01 0.00 0.00 0.00 0.00 0.00 0.00 0.00 0.00 0.00 0.00 0.00 0.00 0.00 0.00 0.00 0.00 0.00 0.00 0.00 0.00 0.00 0.00 0.00 0.00 0.00 0.00 0.01 0.01 0.01 0.01 0.01 0.02 0.03 0.03
0.08 0.09 0.10 0.09 0.08 0.06 0.04 0.03 0.01 0.00 0.00 0.00 0.00 0.00 0.00 0.00 0.00 0.00 0.00 0.00 0.00 0.00 0.00 0.00 0.00 0.00 0.00 0.00 0.00 0.00 0.00 0.00 0.00 0.00 0.00 0.00 0.00 0.01 0.01 0.01 0.02 0.02 0.03
0.06 0.07 0.08 0.09 0.08 0.07 0.05 0.03 0.01 0.01 0.01 0.01 0.00 0.00 0.00 0.00 0.00 0.00 0.00 0.00 0.00 0.00 0.00 0.00 0.00 0.00 0.00 0.00 0.00 0.00 0.00 0.00 0.00 0.00 0.00 0.00 0.00 0.01 0.01 0.01 0.01 0.02 0.02
0.05 0.06 0.08 0.08 0.07 0.06 0.04 0.03 0.02 0.01 0.01 0.01 0.00 0.00 0.00 0.00 0.00 0.00 0.00 0.00 0.00 0.00 0.00 0.00 0.00 0.00 0.00 0.00 0.00 0.00 0.00 0.00 0.00 0.00 0.00 0.00 0.00 0.00 0.01 0.01 0.01 0.01 0.02
0.04 0.04 0.05 0.06 0.05 0.04 0.04 0.04 0.03 0.02 0.01 0.00 0.00 0.00 0.00 0.00 0.00 0.00 0.00 0.00 0.00 0.00 0.00 0.00 0.00 0.00 0.00 0.00 0.00 0.00 0.00 0.00 0.00 0.00 0.00 0.00 0.00 0.00 0.00 0.01 0.01 0.02 0.02
0.03 0.02 0.03 0.03 0.03 0.03 0.04 0.04 0.02 0.01 0.01 0.01 0.01 0.01 0.00 0.00 0.00 0.00 0.00 0.00 0.00 0.00 0.00 0.00 0.00 0.00 0.00 0.00 0.00 0.00 0.00 0.00 0.00 0.00 0.00 0.00 0.00 0.00 0.00 0.00 0.01 0.01 0.01
0.02 0.02 0.01 0.01 0.01 0.02 0.02 0.02 0.02 0.03 0.03 0.03 0.02 0.01 0.00 0.00 0.00 0.00 0.00 0.00 0.00 0.00 0.00 0.00 0.00 0.00 0.00 0.00 0.00 0.00 0.00 0.00 0.00 0.00 0.00 0.00 0.00 0.00 0.00 0.00 0.00 0.00 0.00
0.01 0.01 0.02 0.02 0.03 0.04 0.05 0.06 0.07 0.07 0.05 0.04 0.02 0.01 0.01 0.00 0.00 0.00 0.00 0.00 0.00 0.00 0.00 0.00 0.00 0.00 0.00 0.00 0.00 0.00 0.00 0.00 0.00 0.00 0.00 0.00 0.00 0.00 0.00 0.00 0.00 0.00 0.00
0.02 0.02 0.04 0.06 0.08 0.10 0.13 0.12 0.10 0.08 0.05 0.03 0.02 0.01 0.00 0.00 0.00 0.00 0.00 0.00 0.00 0.00 0.00 0.00 0.01 0.01 0.00 0.00 0.00 0.00 0.00 0.00 0.00 0.00 0.00 0.00 0.00 0.00 0.00 0.00 0.00 0.00 0.00
0.08 0.10 0.13 0.15 0.17 0.18 0.17 0.13 0.09 0.05 0.03 0.02 0.01 0.00 0.00 0.00 0.00 0.00 0.00 0.00 0.00 0.00 0.00 0.01 0.00 0.00 0.00 0.00 0.00 0.01 0.01 0.02 0.01 0.00 0.00 0.00 0.00 0.00 0.00 0.00 0.00 0.00 0.00
0.21 0.24 0.25 0.23 0.20 0.15 0.10 0.05 0.03 0.01 0.01 0.00 0.00 0.00 0.00 0.00 0.00 0.00 0.00 0.00 0.00 0.00 0.00 0.00 0.00 0.00 0.00 0.00 0.01 0.02 0.03 0.02 0.01 0.00 0.00 0.00 0.00 0.00 0.00 0.00 0.00 0.00 0.00
0.31 0.28 0.22 0.15 0.09 0.05 0.02 0.01 0.00 0.00 0.00 0.00 0.00 0.00 0.00 0.00 0.00 0.00 0.00 0.00 0.00 0.00 0.00 0.00 0.00 0.00 0.00 0.00 0.00 0.00 0.00 0.01 0.01 0.00 0.00 0.00 0.00 0.00 0.00 0.00 0.00 0.00 0.00
0.21 0.13 0.07 0.04 0.02 0.01 0.00 0.00 0.00 0.00 0.00 0.00 0.00 0.00 0.00 0.00 0.00 0.00 0.01 0.01 0.01 0.00 0.00 0.00 0.00 0.00 0.00 0.00 0.00 0.00 0.00 0.03 0.04 0.02 0.00 0.01 0.01 0.01 0.02 0.00 0.00 0.00 0.00
MSLP
1017.08 1017.31 1017.49 1017.63 1017.78 1017.95 1018.17 1018.42 1018.70 1018.98 1019.24 1019.45 1019.60 1019.70 1019.76 1019.81 1019.85 1019.91 1020.00 1020.12 1020.26 1020.40 1020.53 1020.63 1020.71 1020.74 1020.74 1020.71 1020.64 1020.55 1020.43 1020.30 1020.15 1020.00 1019.84 1019.67 1019.51 1019.34 1019.16 1018.97 1018.77 1018.55 1018.33
1016.71 1017.00 1017.25 1017.48 1017.71 1017.96 1018.24 1018.55 1018.87 1019.18 1019.46 1019.69 1019.86 1019.97 1020.05 1020.11 1020.16 1020.24 1020.33 1020.45 1020.59 1020.73 1020.85 1020.95 1021.01 1021.03 1021.00 1020.93 1020.83 1020.69 1020.54 1020.38 1020.21 1020.05 1019.90 1019.75 1019.62 1019.48 1019.33 1019.16 1018.97 1018.77 1018.54
1016.24 1016.60 1016.94 1017.28 1017.62 1017.98 1018.34 1018.72 1019.08 1019.41 1019.70 1019.94 1020.11 1020.23 1020.31 1020.37 1020.43 1020.50 1020.59 1020.71 1020.83 1020.96 1021.07 1021.16 1021.20 1021.20 1021.16 1021.07 1020.93 1020.77 1020.60 1020.41 1020.23 1020.06 1019.91 1019.78 1019.66 1019.54 1019.42 1019.27 1019.10 1018.90 1018.68
1015.69 1016.14 1016.59 1017.05 1017.52 1017.99 1018.45 1018.89 1019.29 1019.65 1019.94 1020.17 1020.33 1020.44 1020.52 1020.58 1020.63 1020.70 1020.78 1020.87 1020.98 1021.08 1021.17 1021.24 1021.27 1021.26 1021.21 1021.11 1020.98 1020.81 1020.62 1020.43 1020.24 1020.07 1019.92 1019.79 1019.67 1019.55 1019.43 1019.29 1019.12 1018.93 1018.71
1015.12 1015.65 1016.21 1016.79 1017.38 1017.95 1018.51 1019.01 1019.46 1019.83 1020.12 1020.34 1020.49 1020.60 1020.67 1020.72 1020.77 1020.83 1020.89 1020.97 1021.05 1021.13 1021.19 1021.24 1021.26 1021.25 1021.19 1021.10 1020.97 1020.81 1020.64 1020.45 1020.26 1020.08 1019.92 1019.78 1019.65 1019.52 1019.39 1019.23 1019.06 1018.85 1018.62
1014.55 1015.15 1015.80 1016.48 1017.17 1017.84 1018.47 1019.03 1019.51 1019.89 1020.19 1020.41 1020.56 1020.66 1020.74 1020.80 1020.86 1020.92 1020.97 1021.03 1021.09 1021.14 1021.17 1021.20 1021.21 1021.19 1021.14 1021.06 1020.95 1020.81 1020.65 1020.47 1020.28 1020.10 1019.92 1019.76 1019.60 1019.44 1019.28 1019.10 1018.89 1018.67 1018.42
1014.01 1014.65 1015.36 1016.11 1016.87 1017.61 1018.29 1018.89 1019.39 1019.80 1020.10 1020.34 1020.51 1020.64 1020.74 1020.84 1020.91 1020.99 1021.05 1021.10 1021.13 1021.16 1021.17 1021.18 1021.17 1021.14 1021.10 1021.03 1020.94 1020.81 1020.66 1020.49 1020.30 1020.11 1019.91 1019.71 1019.51 1019.31 1019.10 1018.88 1018.64 1018.39 1018.13
1013.49 1014.15 1014.89 1015.67 1016.46 1017.23 1017.94 1018.57 1019.09 1019.52 1019.86 1020.12 1020.34 1020.52 1020.68 1020.83 1020.95 1021.06 1021.15 1021.20 1021.23 1021.24 1021.23 1021.21 1021.18 1021.15 1021.09 1021.03 1020.94 1020.82 1020.67 1020.49 1020.29 1020.07 1019.84 1019.60 1019.36 1019.11 1018.85 1018.59 1018.32 1018.04 1017.76
1013.00 1013.66 1014.39 1015.17 1015.96 1016.73 1017.45 1018.08 1018.63 1019.08 1019.46 1019.79 1020.08 1020.34 1020.58 1020.80 1021.00 1021.16 1021.28 1021.36 1021.40 1021.40 1021.37 1021.33 1021.28 1021.22 1021.15 1021.06 1020.95 1020.82 1020.65 1020.45 1020.22 1019.97 1019.70 1019.42 1019.14 1018.84 1018.55 1018.25 1017.94 1017.65 1017.35
1012.54 1013.18 1013.89 1014.65 1015.41 1016.16 1016.87 1017.50 1018.06 1018.56 1019.00 1019.39 1019.77 1020.12 1020.46 1020.77 1021.05 1021.28 1021.45 1021.56 1021.61 1021.62 1021.58 1021.52 1021.44 1021.35 1021.25 1021.13 1020.98 1020.81 1020.60 1020.36 1020.10 1019.81 1019.50 1019.18 1018.85 1018.52 1018.19 1017.87 1017.54 1017.23 1016.93
1012.11 1012.75 1013.43 1014.15 1014.89 1015.61 1016.29 1016.92 1017.51 1018.04 1018.54 1019.01 1019.47 1019.92 1020.35 1020.76 1021.11 1021.41 1021.63 1021.77 1021.85 1021.86 1021.82 1021.75 1021.64 1021.52 1021.37 1021.20 1021.01 1020.78 1020.52 1020.23 1019.91 1019.57 1019.22 1018.87 1018.52 1018.16 1017.82 1017.47 1017.14 1016.82 1016.52
1011.73 1012.37 1013.05 1013.75 1014.46 1015.15 1015.82 1016.45 1017.05 1017.62 1018.17 1018.71 1019.25 1019.78 1020.28 1020.75 1021.17 1021.51 1021.77 1021.95 1022.05 1022.07 1022.04 1021.96 1021.84 1021.68 1021.50 1021.28 1021.02 1020.72 1020.40 1020.05 1019.67 1019.29 1018.91 1018.53 1018.16 1017.79 1017.44 1017.09 1016.75 1016.42 1016.12
1011.42 1012.09 1012.78 1013.48 1014.18 1014.86 1015.52 1016.16 1016.77 1017.37 1017.96 1018.55 1019.14 1019.71 1020.26 1020.77 1021.21 1021.57 1021.85 1022.05 1022.16 1022.20 1022.17 1022.10 1021.97 1021.80 1021.58 1021.31 1021.00 1020.64 1020.25 1019.84 1019.41 1018.99 1018.57 1018.17 1017.79 1017.43 1017.07 1016.72 1016.37 1016.03 1015.71
1011.17 1011.91 1012.64 1013.37 1014.08 1014.78 1015.44 1016.09 1016.71 1017.33 1017.94 1018.55 1019.15 1019.74 1020.29 1020.79 1021.22 1021.57 1021.85 1022.04 1022.15 1022.20 1022.19 1022.13 1022.00 1021.83 1021.59 1021.29 1020.93 1020.52 1020.07 1019.60 1019.13 1018.67 1018.23 1017.82 1017.43 1017.06 1016.70 1016.35 1015.99 1015.63 1015.28
1011.02 1011.84 1012.64 1013.42 1014.17 1014.89 1015.57 1016.23 1016.87 1017.49 1018.10 1018.70 1019.29 1019.84 1020.35 1020.81 1021.19 1021.50 1021.74 1021.91 1022.02 1022.07 1022.07 1022.03 1021.92 1021.75 1021.51 1021.20 1020.81 1020.36 1019.86 1019.34 1018.83 1018.33 1017.87 1017.44 1017.05 1016.68 1016.32 1015.95 1015.58 1015.19 1014.80
1010.97 1011.88 1012.76 1013.61 1014.41 1015.17 1015.88 1016.55 1017.19 1017.80 1018.40 1018.97 1019.51 1020.00 1020.45 1020.82 1021.13 1021.37 1021.55 1021.68 1021.76 1021.81 1021.83 1021.80 1021.72 1021.56 1021.33 1021.01 1020.61 1020.13 1019.60 1019.05 1018.49 1017.97 1017.48 1017.04 1016.63 1016.25 1015.88 1015.50 1015.10 1014.68 1014.25
1011.04 1012.03 1012.99 1013.91 1014.76 1015.56 1016.29 1016.97 1017.61 1018.21 1018.77 1019.30 1019.77 1020.19 1020.55 1020.83 1021.05 1021.20 1021.31 1021.38 1021.43 1021.46 1021.47 1021.46 1021.40 1021.26 1021.04 1020.72 1020.31 1019.82 1019.26 1018.68 1018.09 1017.54 1017.02 1016.56 1016.13 1015.73 1015.34 1014.94 1014.51 1014.06 1013.59
1011.24 1012.30 1013.32 1014.29 1015.18 1016.00 1016.75 1017.43 1018.06 1018.64 1019.16 1019.63 1020.04 1020.38 1020.64 1020.83 1020.95 1021.02 1021.04 1021.05 1021.05 1021.05 1021.05 1021.04 1020.98 1020.86 1020.65 1020.33 1019.92 1019.41 1018.84 1018.23 1017.61 1017.02 1016.48 1015.98 1015.53 1015.10 1014.68 1014.26 1013.80 1013.32 1012.81
1011.61 1012.69 1013.74 1014.73 1015.64 1016.46 1017.21 1017.88 1018.49 1019.03 1019.51 1019.93 1020.27 1020.54 1020.72 1020.83 1020.86 1020.84 1020.78 1020.72 1020.66 1020.62 1020.59 1020.56 1020.49 1020.36 1020.15 1019.84 1019.41 1018.90 1018.31 1017.68 1017.03 1016.41 1015.83 1015.30 1014.81 1014.35 1013.90 1013.44 1012.96 1012.46 1011.93
1012.16 1013.23 1014.26 1015.24 1016.13 1016.93 1017.65 1018.29 1018.86 1019.36 1019.80 1020.16 1020.46 1020.66 1020.78 1020.81 1020.77 1020.67 1020.54 1020.40 1020.28 1020.19 1020.11 1020.03 1019.94 1019.79 1019.56 1019.24 1018.81 1018.29 1017.68 1017.03 1016.37 1015.72 1015.10 1014.53 1014.00 1013.50 1013.01 1012.52 1012.02 1011.50 1010.97
1012.89 1013.91 1014.90 1015.81 1016.65 1017.40 1018.06 1018.65 1019.16 1019.62 1020.01 1020.33 1020.57 1020.73 1020.79 1020.77 1020.66 1020.50 1020.30 1020.10 1019.91 1019.74 1019.60 1019.47 1019.33 1019.15 1018.90 1018.56 1018.12 1017.59 1016.99 1016.33 1015.65 1014.97 1014.33 1013.72 1013.14 1012.60 1012.07 1011.55 1011.02 1010.49 1009.94
1013.80 1014.74 1015.63 1016.46 1017.21 1017.87 1018.45 1018.96 1019.41 1019.80 1020.14 1020.41 1020.61 1020.73 1020.75 1020.69 1020.53 1020.31 1020.05 1019.78 1019.52 1019.28 1019.07 1018.88 1018.68 1018.46 1018.18 1017.82 1017.38 1016.85 1016.25 1015.60 1014.92 1014.23 1013.56 1012.92 1012.31 1011.72 1011.15 1010.59 1010.02 1009.46 1008.90
1014.82 1015.66 1016.44 1017.16 1017.80 1018.35 1018.83 1019.24 1019.61 1019.93 1020.20 1020.42 1020.58 1020.66 1020.65 1020.54 1020.35 1020.08 1019.76 1019.43 1019.10 1018.79 1018.51 1018.25 1018.00 1017.73 1017.43 1017.06 1016.62 1016.11 1015.53 1014.89 1014.22 1013.54 1012.86 1012.20 1011.55 1010.92 1010.30 1009.69 1009.08 1008.47 1007.88
1015.89 1016.61 1017.28 1017.87 1018.38 1018.81 1019.17 1019.48 1019.75 1019.99 1020.20 1020.36 1020.47 1020.50 1020.45 1020.31 1020.08 1019.77 1019.41 1019.03 1018.64 1018.27 1017.93 1017.61 1017.31 1017.01 1016.68 1016.31 1015.89 1015.40 1014.84 1014.24 1013.60 1012.93 1012.26 1011.58 1010.90 1010.22 1009.55 1008.88 1008.21 1007.55 1006.91
1016.92 1017.53 1018.07 1018.53 1018.91 1019.22 1019.47 1019.67 1019.84 1019.99 1020.12 1020.22 1020.27 1020.26 1020.18 1020.00 1019.74 1019.40 1019.01 1018.58 1018.15 1017.73 1017.34 1016.98 1016.64 1016.32 1015.98 1015.61 1015.21 1014.75 1014.23 1013.67 1013.06 1012.41 1011.74 1011.05 1010.35 1009.63 1008.90 1008.16 1007.43 1006.69 1005.98
1017.83 1018.33 1018.75 1019.10 1019.36 1019.55 1019.69 1019.79 1019.86 1019.93 1019.99 1020.02 1020.02 1019.97 1019.84 1019.64 1019.35 1018.98 1018.56 1018.11 1017.65 1017.21 1016.79 1016.40 1016.04 1015.70 1015.35 1014.99 1014.60 1014.17 1013.68 1013.15 1012.57 1011.94 1011.28 1010.59 1009.86 1009.10 1008.31 1007.51 1006.69 1005.88 1005.09
Thickness
5677 5675 5672 5670 5668 5666 5663 5660 5658 5655 5653 5651 5650 5648 5644 5641 5639 5638 5636 5634 5632 5630 5627 5625 5623 5622 5621 5621 5620 5620 5620 5620 5620 5620 5620 5621 5621 5621 5622 5623 5623 5624 5625
5675 5671 5668 5666 5663 5661 5658 5654 5651 5648 5646 5644 5641 5639 5636 5633 5630 5629 5627 5625 5623 5620 5618 5615 5614 5613 5612 5612 5612 5612 5612 5612 5611 5612 5612 5612 5612 5612 5613 5614 5615 5616 5617
5672 5669 5665 5662 5659 5656 5652 5648 5644 5641 5638 5636 5633 5630 5628 5625 5622 5620 5618 5615 5613 5611 5609 5607 5605 5604 5603 5603 5603 5603 5603 5603 5602 5602 5602 5602 5603 5603 5603 5604 5605 5606 5607
5669 5665 5662 5658 5654 5650 5646 5642 5637 5633 5629 5626 5624 5622 5619 5616 5614 5611 5609 5606 5604 5602 5600 5598 5596 5595 5594 5594 5594 5594 5594 5593 5593 5592 5592 5592 5592 5592 5592 5593 5594 5595 5596
5666 5662 5658 5653 5649 5645 5640 5637 5631 5627 5622 5619 5616 5614 5611 5608 5605 5603 5600 5598 5596 5593 5591 5589 5587 5586 5585 5584 5584 5583 5583 5583 5582 5582 5581 5581 5581 5581 5581 5582 5582 5583 5585
5663 5658 5653 5648 5644 5639 5634 5630 5624 5619 5615 5611 5610 5605 5602 5600 5597 5595 5592 5590 5587 5585 5583 5580 5578 5576 5575 5574 5573 5572 5572 5571 5571 5570 5570 5569 5569 5569 5569 5570 5571 5572 5573
5659 5654 5648 5642 5639 5634 5629 5624 5618 5612 5607 5604 5600 5595 5593 5591 5589 5586 5584 5581 5579 5577 5574 5571 5568 5566 5564 5563 5562 5561 5560 5560 5559 5559 5558 5558 5558 5558 5558 5558 5559 5560 5561
5656 5650 5645 5639 5634 5628 5622 5617 5613 5605 5601 5597 5593 5588 5584 5582 5580 5578 5574 5572 5569 5567 5563 5560 5557 5555 5553 5552 5551 5550 5549 5548 5547 5547 5547 5547 5547 5546 5546 5546 5547 5548 5549
5653 5647 5641 5636 5630 5625 5619 5613 5608 5602 5595 5589 5587 5584 5577 5575 5570 5568 5565 5562 5559 5555 5552 5549 5547 5544 5543 5541 5539 5538 5537 5536 5535 5535 5535 5535 5535 5535 5534 5534 5535 5536 5537
5648 5644 5638 5633 5627 5621 5615 5609 5603 5598 5592 5584 5579 5576 5573 5569 5562 5559 5555 5551 5548 5545 5541 5539 5536 5533 5531 5529 5527 5526 5524 5523 5523 5523 5522 5522 5522 5521 5521 5521 5521 5522 5522
5641 5638 5633 5628 5622 5616 5610 5604 5598 5593 5588 5581 5575 5569 5564 5558 5553 5548 5544 5539 5536 5534 5530 5527 5524 5520 5518 5516 5514 5512 5511 5510 5510 5509 5508 5508 5507 5506 5506 5506 5506 5506 5505
5631 5628 5626 5622 5616 5610 5604 5599 5593 5587 5581 5575 5569 5564 5558 5551 5544 5538 5532 5526 5521 5520 5518 5515 5511 5507 5505 5501 5499 5497 5496 5495 5494 5493 5492 5492 5491 5490 5490 5489 5488 5487 5487
5622 5621 5618 5613 5608 5603 5597 5591 5585 5578 5573 5567 5560 5554 5549 5544 5537 5530 5523 5516 5510 5508 5506 5503 5499 5494 5491 5487 5484 5483 5481 5479 5478 5477 5477 5476 5475 5474 5473 5472 5471 5470 5470
5619 5614 5609 5604 5599 5593 5588 5582 5576 5569 5562 5556 5550 5544 5538 5533 5527 5521 5513 5505 5498 5494 5492 5490 5487 5482 5477 5474 5470 5468 5465 5463 5461 5461 5460 5459 5458 5457 5455 5454 5453 5452 5451
5607 5602 5598 5593 5587 5582 5577 5572 5565 5558 5552 5545 5538 5532 5526 5521 5515 5509 5502 5495 5487 5481 5479 5477 5472 5469 5465 5460 5456 5453 5450 5447 5446 5445 5443 5442 5440 5439 5438 5436 5434 5432 5430
5596 5591 5586 5581 5575 5570 5565 5560 5553 5547 5540 5533 5526 5520 5514 5508 5502 5495 5489 5482 5475 5469 5464 5463 5459 5455 5451 5446 5442 5439 5436 5433 5431 5428 5426 5425 5423 5420 5418 5416 5413 5410 5406
5585 5580 5575 5570 5564 5558 5552 5546 5540 5534 5527 5521 5515 5508 5502 5496 5489 5482 5476 5469 5462 5455 5452 5452 5445 5441 5436 5431 5428 5424 5421 5418 5415 5412 5408 5406 5403 5399 5396 5392 5387 5383 5379
5572 5569 5564 5558 5552 5545 5539 5532 5526 5520 5514 5508 5501 5495 5489 5484 5477 5470 5463 5457 5450 5444 5438 5437 5432 5426 5421 5416 5413 5409 5407 5403 5398 5393 5389 5386 5381 5376 5370 5365 5360 5357 5353
5560 5556 5552 5546 5539 5532 5525 5518 5513 5507 5501 5494 5488 5482 5476 5470 5463 5456 5450 5444 5437 5432 5425 5420 5419 5412 5407 5401 5397 5394 5390 5385 5378 5372 5367 5362 5357 5351 5345 5340 5336 5334 5331
5547 5543 5538 5532 5526 5519 5512 5505 5500 5493 5486 5480 5474 5468 5462 5456 5450 5444 5437 5431 5424 5417 5410 5405 5402 5398 5392 5386 5380 5376 5376 5368 5360 5350 5344 5339 5334 5328 5322 5318 5317 5316 5315
5533 5529 5524 5518 5512 5505 5498 5493 5486 5480 5473 5466 5460 5454 5449 5444 5439 5432 5426 5418 5411 5403 5396 5390 5387 5382 5377 5369 5363 5357 5355 5352 5344 5330 5326 5320 5313 5310 5306 5303 5302 5302 5303
5517 5514 5509 5503 5497 5492 5486 5480 5474 5467 5460 5453 5447 5441 5436 5430 5425 5419 5413 5407 5399 5391 5383 5377 5371 5364 5359 5350 5345 5339 5333 5330 5329 5315 5307 5308 5299 5299 5296 5293 5291 5292 5294
5501 5497 5492 5487 5481 5478 5474 5469 5463 5455 5448 5440 5433 5427 5422 5415 5408 5401 5396 5391 5383 5375 5368 5361 5355 5346 5339 5333 5327 5321 5313 5309 5307 5298 5292 5300 5293 5292 5290 5285 5282 5282 5284
5486 5481 5477 5474 5469 5466 5463 5458 5451 5442 5434 5427 5419 5412 5405 5398 5392 5387 5383 5376 5368 5358 5350 5342 5336 5329 5321 5314 5307 5303 5298 5295 5293 5285 5278 5285 5287 5286 5285 5279 5273 5273 5275
5473 5469 5465 5462 5458 5455 5451 5446 5438 5429 5421 5413 5406 5399 5392 5385 5379 5375 5370 5362 5354 5344 5335 5327 5320 5312 5305 5298 5291 5287 5281 5278 5282 5280 5269 5270 5276 5275 5277 5274 5268 5265 5266
5462 5459 5456 5452 5448 5443 5439 5433 5427 5417 5408 5401 5392 5384 5377 5372 5366 5360 5352 5345 5338 5331 5322 5313 5303 5294 5287 5281 5276 5271 5266 5263 5265 5268 5264 5258 5259 5254 5267 5272 5263 5257 5257